Wind_Speed
7 7 8 8 8 9 9 9 9 9 9 9 9 9 8 9 9 9 9 9 9 9 8 8 8 9 10 11 12 14 16 17 18 20 21 14 8 7 6 4 3 3 5 5 5 4 3 2 2 1 1 2 2 1 1 0 0 1 2 2 1 2 2 3 4 3 1 1 3 1 0 3 4 6 9 7 7 12 12 4 6 11 4 3 11 19 27 28
8 8 9 9 9 10 10 10 10 10 10 10 10 10 9 9 9 9 8 9 9 8 8 8 8 8 9 9 10 11 13 15 18 23 20 14 9 8 6 5 5 4 4 3 4 2 0 0 2 2 2 2 2 0 1 1 1 2 2 1 2 4 3 3 5 4 2 1 3 3 1 2 3 7 11 6 8 15 9 4 8 9 6 8 13 22 28 29
8 8 9 10 10 11 11 11 11 11 12 12 11 11 10 10 9 9 8 9 8 8 8 8 7 8 9 9 9 9 10 11 15 21 17 15 13 11 9 9 9 7 3 1 2 1 1 2 1 2 4 3 2 1 1 2 2 2 2 1 3 4 2 3 7 8 5 2 3 3 2 2 2 8 11 8 9 11 7 8 10 11 14 16 20 28 29 30
8 9 9 10 10 11 11 12 12 12 12 13 13 12 12 11 10 10 9 9 9 8 8 8 7 7 8 9 8 8 9 9 11 13 12 16 16 15 13 12 11 9 4 2 3 3 1 2 2 2 3 3 3 2 2 3 3 2 3 2 4 2 1 4 9 8 6 4 4 3 2 2 1 7 10 13 10 3 8 16 13 14 20 21 27 31 30 32
9 9 9 10 10 10 11 11 12 12 12 13 13 13 13 12 12 11 10 9 9 9 8 8 8 7 8 8 8 8 6 5 3 5 9 17 18 16 15 13 12 9 7 5 6 6 5 3 2 2 3 3 1 1 3 5 5 2 2 3 3 3 0 4 9 8 5 5 5 3 1 1 2 5 10 16 9 5 15 21 16 15 19 23 30 32 30 32
9 9 10 10 10 11 11 11 12 12 12 12 13 13 13 13 12 12 11 10 10 9 9 8 7 8 8 8 9 8 4 0 2 4 10 18 18 15 15 13 12 10 9 8 9 9 8 5 2 3 2 2 1 2 3 5 6 1 2 3 2 4 2 2 8 9 7 5 4 2 2 2 3 3 9 17 12 8 12 18 18 15 16 22 31 33 31 32
10 10 10 10 10 11 11 11 11 11 12 12 12 12 12 12 12 12 12 11 11 10 9 8 7 8 7 8 8 7 8 5 1 4 10 16 17 14 14 13 12 12 12 11 12 11 9 7 5 4 1 2 3 4 3 3 6 2 1 2 2 4 3 3 6 8 9 7 4 3 3 4 6 3 6 15 14 8 5 10 17 17 18 24 31 34 32 33
10 11 11 11 11 11 11 11 11 11 11 11 11 11 11 11 11 12 12 12 11 10 10 9 7 8 7 8 8 7 10 7 4 7 10 13 15 13 12 13 13 14 13 12 12 11 9 9 9 6 2 3 3 3 3 2 2 3 2 3 3 2 3 4 6 7 8 9 7 5 4 4 6 4 4 8 10 9 5 8 17 19 21 27 32 34 33 33
11 11 11 11 11 11 11 10 10 10 10 10 10 10 10 10 10 11 11 11 11 11 10 9 8 8 7 7 7 7 8 7 8 9 10 11 12 11 10 11 13 14 13 12 12 12 11 10 10 7 4 5 4 3 5 3 2 5 6 4 4 2 2 4 6 7 6 6 5 3 4 3 3 2 2 3 6 9 9 13 19 22 24 29 32 33 33 34
12 12 12 12 12 11 11 10 10 10 10 10 10 10 9 9 10 9 10 10 11 11 10 10 9 8 7 7 4 3 5 8 11 10 8 8 9 9 9 9 11 12 12 12 13 13 12 10 5 3 5 6 4 3 5 4 2 5 6 6 4 1 2 4 5 6 5 5 4 3 4 3 1 2 2 2 6 12 14 18 22 24 26 30 32 32 33 33
12 12 13 13 12 12 11 10 10 10 9 9 9 9 9 9 9 8 8 9 10 10 10 10 10 9 8 7 5 4 5 8 13 13 9 7 7 7 8 8 9 10 11 12 13 12 12 11 5 1 2 4 3 2 6 5 3 4 7 5 2 3 2 5 5 5 4 3 4 3 3 4 1 2 4 7 12 15 19 24 25 25 27 29 31 31 32 32
13 13 13 13 12 11 10 10 9 9 9 8 8 8 8 8 8 7 7 8 9 9 10 10 10 10 9 10 12 8 5 7 13 15 11 9 9 8 7 7 9 10 11 12 12 11 11 13 11 7 6 5 3 2 4 5 3 5 6 2 4 5 2 6 5 5 4 1 2 1 3 4 3 3 5 12 16 18 21 25 26 26 27 28 29 30 31 31
13 13 12 12 11 9 9 9 8 8 8 7 8 8 8 7 7 6 6 7 8 8 9 10 10 10 9 10 10 7 8 8 12 16 13 12 11 10 9 8 9 10 11 12 11 10 11 12 13 14 14 9 4 1 1 3 5 4 3 2 2 6 4 6 4 4 5 2 1 3 2 5 5 5 9 16 20 21 22 25 25 25 26 26 27 28 30 30
12 12 11 10 9 8 8 7 7 7 7 7 7 7 7 6 5 5 5 6 6 7 8 9 9 8 9 8 3 6 11 11 13 16 14 14 12 10 10 9 8 9 10 11 9 10 10 9 10 13 14 12 7 2 2 3 3 2 1 2 2 2 4 5 2 6 5 2 3 5 2 5 7 5 12 20 22 24 23 23 25 25 26 26 26 27 28 29
11 11 10 9 8 7 7 6 6 6 6 6 6 5 5 4 3 3 4 4 5 6 7 8 8 6 9 9 4 7 12 13 15 15 14 15 13 10 9 7 7 7 8 9 8 10 9 5 7 9 9 7 4 3 2 3 2 2 1 2 3 0 4 7 3 9 5 1 5 6 2 6 7 5 15 23 23 25 24 23 24 25 26 26 26 27 27 28
10 10 10 9 8 7 6 6 5 6 6 5 4 4 3 2 2 2 2 3 4 6 6 6 6 5 6 5 2 4 9 13 14 15 15 16 13 9 6 6 7 7 7 7 7 9 7 5 7 8 5 2 4 4 3 3 3 3 1 2 2 1 3 6 2 7 5 2 2 3 1 3 4 1 14 24 24 23 23 23 24 26 26 27 27 27 27 27
10 10 10 9 8 7 6 5 5 5 5 4 3 3 2 1 1 2 2 3 4 5 5 5 5 5 5 2 1 2 3 5 9 13 16 16 14 10 7 7 8 8 8 8 9 9 6 5 5 4 2 2 3 3 3 3 3 3 1 1 3 2 2 3 3 5 5 3 2 2 2 5 4 1 10 21 24 22 20 22 24 25 26 27 27 27 27 28
10 10 10 9 7 6 5 5 5 5 5 4 4 3 2 2 2 2 2 2 3 3 4 5 4 2 3 4 1 2 2 1 4 9 13 17 16 12 10 8 6 6 5 5 7 6 5 4 2 0 2 3 2 4 1 4 3 2 3 2 3 2 3 4 4 4 6 3 3 4 3 9 9 3 7 17 23 21 20 23 25 25 26 26 27 27 27 28
10 10 9 8 6 5 4 4 4 5 5 6 6 4 3 2 1 1 1 3 4 3 1 5 7 2 1 4 2 1 1 1 3 6 9 13 17 15 11 6 4 3 1 0 3 2 3 1 1 0 2 1 2 4 5 6 5 4 4 3 3 4 4 5 4 5 8 4 4 7 6 8 8 6 6 13 21 21 20 21 23 24 25 26 26 27 28 29
11 10 8 7 5 4 3 3 4 6 7 8 6 4 3 1 1 1 3 6 7 5 4 4 7 7 5 3 2 3 1 1 1 5 7 9 16 15 10 5 4 3 0 2 3 1 1 1 2 4 5 5 5 6 6 5 3 4 3 3 4 4 6 4 3 6 7 5 5 8 8 8 8 7 6 13 19 20 19 18 20 23 24 26 27 27 29 31
11 9 7 5 3 2 3 3 5 7 8 9 7 4 3 3 2 3 7 7 4 6 9 7 9 12 8 4 4 5 2 1 2 5 6 7 12 11 8 5 2 2 2 1 2 2 2 3 5 6 8 7 6 6 5 5 4 5 3 5 5 4 7 5 2 4 6 4 5 5 6 9 10 8 6 11 13 16 21 20 20 24 25 26 27 28 30 31
11 8 5 3 1 2 4 4 6 8 9 10 7 5 4 4 4 5 7 5 4 3 6 7 9 11 7 5 6 4 3 2 3 6 7 9 11 9 6 4 3 3 3 2 1 3 3 3 7 9 7 3 3 4 4 5 5 5 3 3 5 3 4 5 2 1 3 3 4 2 5 9 10 8 7 10 12 15 26 27 25 27 27 27 29 29 30 30
10 6 3 0 3 5 6 6 7 9 10 10 8 5 4 2 3 6 7 5 4 3 1 5 7 7 5 4 6 6 4 2 3 6 9 12 12 9 7 6 4 3 1 2 4 0 2 5 8 7 4 1 4 3 2 3 4 4 3 2 6 4 1 4 4 2 1 2 1 2 3 6 6 6 7 13 17 17 23 30 30 30 30 32 33 32 32 32
8 4 0 4 8 9 9 8 8 10 11 10 7 5 3 1 2 4 6 3 2 4 3 1 3 4 3 3 4 6 6 5 5 6 10 14 13 8 7 7 4 3 4 4 6 4 6 9 4 1 2 3 4 5 3 3 4 5 6 5 7 8 4 4 2 1 2 2 1 3 2 6 5 5 6 8 13 14 18 24 27 30 32 33 33 33 33 34
6 1 4 8 10 10 11 11 11 12 11 9 6 4 2 0 2 5 5 1 1 4 4 2 3 2 3 3 4 4 3 6 8 7 10 15 15 8 4 6 5 4 6 4 5 4 8 9 4 1 2 3 3 6 4 4 3 5 6 9 11 12 7 4 3 3 4 4 3 3 2 5 5 4 7 3 5 10 13 16 22 28 30 31 32 32 33 34
3 3 8 10 11 11 10 10 10 11 10 8 6 3 1 2 3 6 4 4 2 3 3 2 2 1 2 3 4 3 0 4 6 7 11 14 14 9 3 3 3 3 5 4 3 3 5 4 4 4 4 3 4 6 4 6 3 4 5 8 9 9 6 5 6 3 0 4 4 1 3 4 6 4 6 4 4 8 8 10 18 26 29 31 33 34 34 34
0 7 10 10 12 9 5 7 9 8 7 7 5 1 1 2 5 7 3 5 2 3 2 1 0 0 2 3 4 5 1 4 3 4 12 14 13 10 4 2 1 2 4 4 1 3 3 1 2 4 4 4 4 5 5 7 5 4 7 3 5 7 6 7 7 5 4 3 3 3 3 1 5 5 5 2 4 7 6 8 13 21 28 31 34 35 36 36
3 10 11 10 10 6 3 7 8 5 6 6 4 1 1 1 5 5 3 4 2 3 2 1 2 2 3 3 6 8 3 4 2 1 8 13 13 8 4 5 4 2 2 5 2 5 2 2 3 5 3 3 5 6 7 8 4 7 10 6 5 6 5 6 7 4 1 1 3 4 2 1 5 6 4 1 3 6 9 11 12 19 27 31 33 35 36 38
5 11 10 9 8 5 5 8 6 5 6 5 2 1 2 3 5 3 5 3 2 2 2 2 3 3 3 2 6 10 6 3 1 0 4 10 13 6 1 5 5 1 1 4 4 6 3 4 5 5 3 4 7 7 7 9 6 7 6 7 3 2 2 2 5 3 3 1 4 5 5 2 4 6 4 1 2 6 10 10 11 19 27 30 32 34 35 37
6 10 9 9 7 5 6 6 5 6 5 3 2 3 4 5 2 4 3 0 2 2 3 3 3 2 1 1 2 5 3 2 0 2 3 5 11 7 1 1 4 3 1 2 2 6 5 5 4 3 5 6 5 6 5 9 8 4 5 6 3 6 5 4 3 3 4 1 6 7 8 5 3 6 4 3 5 7 7 6 7 14 23 28 31 33 34 35
5 8 9 8 7 6 6 5 5 6 5 4 3 4 5 3 3 6 1 2 2 3 4 3 4 4 3 3 2 4 2 2 3 2 2 2 3 3 2 2 1 3 3 4 3 6 6 3 2 3 6 5 2 4 2 1 1 1 2 2 2 2 3 4 4 4 3 4 7 4 7 5 2 5 5 6 7 5 5 6 6 10 19 28 31 33 34 35
4 7 7 7 7 7 6 5 6 6 5 4 3 4 1 2 4 2 1 2 1 3 2 2 4 4 4 4 3 4 3 3 4 3 2 2 3 1 1 1 1 2 3 3 3 5 5 3 3 4 4 2 2 3 5 5 5 4 2 4 2 2 2 2 2 1 2 6 5 4 6 3 5 8 9 10 10 8 8 10 11 12 20 29 32 32 33 34
3 4 4 6 7 7 6 6 6 6 5 4 3 2 3 5 2 2 2 2 1 2 1 1 3 4 4 5 4 4 3 2 3 3 2 2 4 3 2 1 3 1 1 2 1 4 4 5 6 4 2 2 3 3 2 3 4 3 1 3 2 1 1 1 3 1 3 5 2 3 3 1 4 6 9 11 12 12 13 16 18 18 21 27 32 33 33 34
1 1 2 5 6 7 8 7 6 5 5 5 2 2 6 5 1 1 2 2 2 2 2 1 3 5 5 3 3 3 3 3 3 4 3 3 4 3 3 3 2 2 2 1 1 0 0 4 5 2 2 4 2 3 4 3 1 3 2 3 2 3 2 2 2 2 4 4 2 1 1 2 3 4 6 8 10 14 14 15 18 19 19 23 27 30 31 33
0 1 2 5 6 7 7 6 5 4 5 5 2 5 5 2 2 1 2 4 2 2 3 3 3 5 5 3 3 3 2 2 4 5 4 4 3 1 2 3 3 2 3 1 2 1 1 3 6 4 4 3 3 2 3 5 1 2 1 3 1 4 4 1 2 4 2 2 2 1 3 4 4 6 6 5 9 10 9 8 9 11 13 17 22 27 29 31
1 0 3 5 6 6 5 4 4 4 5 3 4 5 2 3 2 2 2 2 0 0 1 4 5 4 4 4 4 5 4 3 3 4 4 3 1 1 2 2 3 2 2 2 2 1 1 3 6 5 5 3 3 4 1 4 1 2 2 1 3 4 5 2 1 1 3 1 3 1 3 5 4 5 6 5 6 6 7 4 2 7 11 17 22 26 29 31
2 1 3 5 5 5 4 3 2 3 4 2 6 3 2 2 2 3 2 0 1 2 4 2 2 2 1 2 3 6 5 4 3 3 2 2 2 3 4 3 2 1 1 2 1 1 1 3 5 3 3 6 6 4 3 2 4 3 1 3 2 1 3 3 1 3 3 1 4 1 2 5 3 3 6 7 7 6 6 5 1 6 12 16 19 24 27 30
3 1 3 4 3 3 2 2 3 5 2 4 5 2 1 1 1 2 3 2 0 3 5 3 0 1 1 1 2 5 4 3 3 3 2 1 2 2 4 3 3 6 5 0 1 1 2 2 6 2 3 7 7 4 3 4 3 4 2 2 2 2 1 1 1 0 1 2 4 4 3 3 2 4 5 6 6 6 6 5 2 5 10 12 14 19 23 26
4 1 3 3 3 1 0 3 6 5 2 5 3 1 1 0 3 6 6 2 2 4 3 2 1 1 2 2 1 3 3 2 1 2 2 1 1 2 5 3 5 11 11 3 2 1 1 1 4 5 3 4 5 4 0 5 5 2 2 2 2 2 3 1 1 2 1 2 2 4 4 2 5 5 4 6 7 6 6 4 4 4 6 9 12 16 21 24
3 0 2 3 2 1 3 5 5 4 4 3 2 1 0 0 3 11 12 5 3 4 2 1 2 2 1 2 1 1 2 2 1 1 1 1 1 1 5 5 3 8 10 5 3 1 1 1 3 6 4 3 2 0 2 3 3 2 3 3 2 2 1 1 0 1 1 2 2 1 3 5 6 4 4 7 7 5 5 4 3 4 5 8 11 15 20 24
2 0 1 3 2 2 4 5 5 5 4 2 1 0 1 2 3 10 14 11 7 6 5 3 3 2 0 2 2 2 1 3 3 2 1 2 2 1 4 7 3 5 5 5 3 1 1 1 1 3 4 2 3 4 3 4 4 3 1 1 3 2 3 3 2 2 0 2 3 2 2 6 6 2 3 6 7 6 6 3 1 3 5 7 10 14 17 20
1 1 1 3 1 3 3 4 3 2 3 2 2 2 3 3 3 6 9 10 8 7 6 4 3 2 1 0 1 2 2 3 3 3 2 1 1 3 5 14 10 3 1 2 2 2 1 2 1 2 3 4 7 8 5 4 3 3 2 2 2 4 5 4 1 3 2 2 1 2 1 5 5 3 4 6 6 7 5 4 6 3 5 7 9 12 13 16
2 3 2 2 1 4 4 4 4 3 3 3 4 6 7 5 3 5 7 7 5 4 5 4 2 2 2 0 1 3 3 2 1 2 1 2 2 3 7 19 14 2 2 1 2 2 1 2 2 3 4 4 5 7 5 4 2 2 0 2 2 4 5 5 3 2 1 3 1 1 2 4 5 4 5 6 8 12 10 3 3 5 7 7 8 10 11 12
5 5 5 3 2 5 4 3 3 3 3 4 5 6 8 8 6 5 4 4 4 2 2 2 2 2 2 2 3 2 2 1 1 2 1 1 3 4 8 17 13 4 3 1 1 2 1 1 2 2 4 5 5 6 6 5 3 1 3 4 2 5 5 3 2 2 1 4 2 3 3 5 5 4 8 10 11 13 13 10 4 2 5 7 8 8 8 9
5 4 7 7 5 6 5 4 5 5 3 4 5 3 4 6 6 6 5 4 6 5 3 1 2 2 2 3 4 3 3 2 1 2 1 1 4 4 9 16 11 5 6 4 3 2 0 1 2 2 1 1 1 2 3 3 3 2 3 4 2 5 6 3 2 3 2 3 1 2 4 5 6 10 14 14 13 12 13 13 8 4 1 5 7 7 7 8
2 1 3 6 7 8 8 6 6 6 4 4 4 3 3 2 2 5 7 5 5 7 5 3 1 3 4 4 4 3 4 2 1 1 1 3 3 3 10 14 8 6 9 9 8 3 2 2 2 5 5 4 5 5 4 1 2 3 5 6 4 4 6 5 4 1 2 3 3 3 3 6 10 13 16 16 14 11 11 12 11 7 4 0 4 7 7 6
2 1 1 3 5 8 9 8 6 5 4 3 3 1 3 1 1 4 5 3 3 4 4 4 3 3 3 3 3 2 4 3 3 2 2 3 3 5 12 10 6 7 8 10 12 5 4 2 0 5 4 5 6 5 5 2 2 4 4 6 5 3 7 7 2 2 1 1 4 4 1 4 7 11 14 14 13 10 11 13 12 8 5 3 1 5 8 7
3 2 2 3 2 2 4 5 6 7 5 3 3 1 2 3 2 1 2 3 3 3 3 3 5 3 2 3 4 1 3 4 4 3 1 3 3 5 9 7 4 7 8 9 10 4 5 0 2 3 3 6 4 4 6 4 3 3 1 5 6 3 7 7 1 4 2 2 5 6 3 1 4 10 12 12 13 13 15 14 9 5 5 4 3 2 6 6
7 6 5 7 5 3 3 2 4 9 7 4 4 3 2 3 2 0 1 3 4 4 4 2 2 3 0 3 5 2 1 1 3 4 2 2 3 2 4 5 4 6 9 7 6 3 3 1 2 1 2 6 5 4 5 4 3 1 4 6 8 3 6 8 4 6 6 5 4 5 4 2 2 9 11 13 17 17 13 8 3 4 5 4 3 2 1 2
8 6 5 8 9 9 8 4 4 6 5 4 3 2 1 3 2 2 3 4 1 3 4 3 3 5 2 3 4 1 2 4 3 4 4 1 3 1 1 2 3 5 9 5 3 3 2 1 1 3 2 6 5 4 6 4 1 2 5 9 10 6 4 8 6 5 6 4 5 6 3 1 3 10 13 15 19 19 10 4 6 7 6 4 2 2 2 1
10 9 8 8 6 8 8 5 4 4 3 4 2 0 2 2 0 1 4 7 4 2 2 1 3 3 2 4 3 2 5 3 6 10 10 6 5 5 3 2 3 3 5 2 2 2 2 1 2 4 3 5 5 5 7 5 3 3 6 10 11 7 5 7 5 5 6 5 7 6 5 3 7 12 15 14 17 17 12 8 9 9 7 5 3 3 2 3
12 11 10 8 4 6 6 3 4 4 2 2 1 1 2 1 1 3 3 6 8 7 4 2 2 1 2 3 4 7 13 13 14 18 16 11 10 10 7 5 2 1 2 1 1 1 2 2 1 2 1 5 5 5 5 4 4 2 2 5 6 6 5 5 5 5 7 6 5 4 4 6 9 12 13 14 15 15 14 12 12 10 8 5 4 4 4 5
Wind_Direction
293 292 290 289 288 287 287 287 287 288 289 287 287 285 284 284 284 286 286 288 289 290 293 291 291 287 280 275 270 265 262 262 261 264 258 234 219 258 257 254 278 242 216 204 197 198 200 200 217 232 346 330 337 275 215 276 299 49 73 89 144 190 190 203 185 178 164 300 276 299 137 160 120 131 143 142 154 146 146 147 166 186 226 221 184 169 167 168
299 298 295 294 291 289 288 286 286 285 285 284 284 283 283 284 284 286 286 290 292 295 298 297 300 297 293 291 286 277 267 261 258 255 238 205 213 235 222 235 260 257 237 229 214 193 141 268 235 243 262 300 327 276 184 189 147 124 105 86 219 205 206 199 172 171 167 269 275 289 303 200 143 133 149 140 131 142 135 110 152 160 142 153 168 168 169 169
302 300 297 296 294 292 290 288 286 284 283 282 280 280 281 282 282 284 285 288 291 294 297 297 301 302 303 303 303 297 283 276 262 250 222 196 215 215 212 242 254 255 267 285 207 158 30 7 348 253 259 284 297 269 185 187 179 170 118 64 252 222 231 209 176 174 179 228 300 328 316 249 167 151 156 146 144 156 156 152 156 152 149 152 163 167 169 169
302 300 297 295 294 292 290 289 288 286 284 281 280 278 277 278 278 279 280 283 286 288 291 293 298 301 304 308 314 310 304 301 268 248 217 202 210 206 212 235 244 241 239 214 184 184 222 337 336 252 258 291 288 265 240 197 184 177 148 176 246 221 269 218 194 190 195 228 282 337 325 299 175 170 158 141 140 197 204 189 189 178 168 160 162 168 169 171
301 299 297 296 294 293 292 290 290 289 287 284 282 278 275 274 273 274 275 276 279 281 284 288 292 297 302 308 315 312 318 336 257 223 201 199 200 202 209 225 236 228 216 206 195 197 210 262 299 232 243 297 306 266 251 196 173 163 201 233 237 187 259 226 202 206 214 229 267 307 290 266 174 187 170 156 158 219 211 206 206 196 185 173 168 169 170 173
301 300 299 298 297 296 295 294 293 292 290 287 285 282 278 273 271 270 269 270 271 275 278 282 288 291 299 304 310 308 293 318 190 190 188 193 196 200 206 221 230 215 206 209 202 200 209 229 249 202 209 306 216 215 271 202 177 162 261 261 216 195 244 241 201 211 218 218 252 256 254 248 192 207 190 182 192 211 216 216 206 200 194 181 173 170 172 176
302 301 301 301 300 300 299 297 295 292 290 288 286 285 282 277 272 267 265 265 265 267 272 276 283 285 295 298 303 303 270 254 192 162 178 189 196 201 208 220 220 205 204 210 205 202 208 215 220 208 207 318 225 221 270 201 180 170 269 248 185 210 251 232 204 215 220 220 254 270 279 252 202 192 193 197 210 222 240 221 202 193 184 178 174 173 175 178
303 302 303 303 303 304 301 298 294 291 288 285 286 285 284 280 274 268 263 261 260 262 266 270 277 278 289 294 300 304 273 246 157 138 150 175 194 202 208 213 207 203 209 214 212 208 208 213 222 222 218 264 241 225 213 155 180 192 214 216 172 203 240 216 217 227 230 233 261 274 271 250 205 185 185 209 228 233 234 201 192 185 178 177 176 176 177 179
303 303 304 305 304 303 300 296 292 289 286 283 283 282 282 280 274 270 262 258 257 255 258 262 268 273 280 286 298 302 270 216 173 155 137 151 176 187 195 201 203 209 215 215 215 214 217 222 230 234 241 257 269 249 189 157 261 212 197 183 160 187 214 204 219 226 232 236 246 260 278 268 199 198 236 250 233 213 200 185 183 179 176 177 177 178 180 181
304 304 305 305 303 300 296 293 288 285 284 279 277 277 276 275 272 270 264 257 252 250 252 253 260 266 271 278 289 284 236 196 187 178 159 160 168 176 185 198 209 219 222 218 217 221 229 230 239 264 262 271 288 257 194 179 255 211 179 152 129 125 215 208 220 229 235 244 239 222 279 287 192 223 259 195 181 180 173 171 176 175 176 178 179 181 183 184
306 306 305 303 300 297 293 287 282 279 279 274 272 269 268 269 269 268 264 256 248 245 245 247 253 258 266 270 254 220 199 198 198 191 184 187 188 189 193 204 219 230 232 230 229 237 244 238 238 345 268 284 307 253 210 217 249 181 149 128 46 17 246 232 229 240 235 256 259 210 278 298 149 229 220 171 167 174 167 164 170 173 175 178 180 183 185 188
308 307 305 302 299 295 289 282 276 273 272 269 265 261 261 265 267 266 261 254 246 240 239 242 246 251 264 268 256 236 204 209 206 200 196 196 195 191 193 212 230 243 247 246 248 255 257 247 241 244 263 288 320 312 229 210 173 144 128 111 330 7 319 242 224 221 196 235 277 155 314 291 205 217 200 172 167 170 166 164 169 172 175 179 182 185 188 191
310 308 305 302 299 293 287 278 272 269 266 262 257 256 259 265 270 266 258 253 245 236 235 237 241 249 261 270 267 234 207 207 204 202 202 200 196 189 186 204 231 250 256 256 262 267 267 262 252 251 266 279 281 297 192 140 124 130 88 81 323 4 328 252 212 179 167 214 244 147 282 272 244 239 180 172 170 165 162 164 170 173 176 180 184 188 191 194
312 310 307 305 301 294 286 277 271 265 258 254 252 252 259 268 272 264 257 253 244 236 232 233 239 246 253 263 271 215 207 197 197 201 202 201 197 197 194 197 225 248 258 260 265 269 269 274 268 260 269 273 254 192 101 56 86 134 40 41 9 350 294 286 200 161 154 214 170 145 249 263 269 261 175 174 176 168 163 167 173 176 179 182 186 191 195 197
316 313 311 308 302 295 286 277 269 258 249 246 243 248 259 268 264 253 252 247 239 234 231 234 238 244 262 269 255 220 215 205 199 195 197 202 199 204 206 206 227 243 254 260 264 266 264 266 262 259 268 265 223 144 55 358 20 48 3 319 341 189 269 307 228 176 164 185 165 146 244 263 277 257 177 176 180 175 169 171 177 180 183 187 188 192 197 200
318 314 311 308 301 293 284 274 260 247 240 232 227 240 247 246 238 234 239 236 231 227 225 233 233 237 266 277 244 209 217 218 213 202 203 207 207 213 212 222 239 247 254 255 261 268 264 256 259 258 253 194 142 109 49 2 343 2 29 255 280 194 281 318 270 205 183 126 166 179 235 256 295 272 176 178 181 179 173 174 181 184 187 190 192 196 199 202
319 315 311 308 300 291 281 264 245 231 221 210 206 210 202 192 186 190 208 214 220 221 220 223 230 245 253 248 103 118 168 217 223 217 216 217 218 220 218 231 242 246 256 260 266 273 264 246 247 251 237 105 99 92 51 329 312 329 357 255 247 208 245 301 300 240 188 138 195 204 240 246 268 26 171 183 185 182 178 180 185 187 190 193 195 198 202 205
321 317 313 307 297 288 273 250 231 213 198 187 179 169 158 147 142 166 187 183 199 207 224 223 211 250 248 218 195 88 92 232 229 220 222 221 219 218 223 235 249 251 261 268 266 260 238 227 191 108 8 22 62 102 140 246 227 265 276 282 286 280 244 252 283 221 171 173 200 174 240 254 262 260 180 191 192 190 189 188 190 191 193 195 197 200 204 208
325 322 315 307 296 282 260 237 215 192 179 168 159 147 138 143 153 177 186 188 191 168 207 220 196 183 234 198 207 330 305 266 250 221 216 212 207 208 217 228 247 252 284 256 254 229 196 199 79 311 308 290 197 162 197 217 205 249 260 235 267 291 264 226 254 230 173 168 212 196 225 249 259 251 202 199 198 199 202 196 195 196 196 198 200 203 205 209
329 328 318 308 295 275 241 217 197 179 169 158 148 130 119 117 150 284 286 253 233 228 259 251 223 250 278 225 238 336 320 165 209 213 203 193 194 199 206 219 235 242 100 145 227 266 150 216 239 224 224 225 219 206 221 234 243 292 306 281 259 265 278 242 241 246 177 158 234 213 225 251 256 256 218 196 196 201 207 203 199 200 201 202 203 205 207 212
333 329 318 308 288 254 202 193 183 173 166 157 142 113 87 56 53 340 315 292 275 250 247 256 253 258 264 251 285 341 352 149 134 179 194 185 181 187 202 204 169 238 277 183 197 4 71 219 236 223 222 224 220 212 238 268 279 287 281 295 286 240 266 261 215 241 183 179 267 216 222 252 247 252 227 189 189 202 206 205 204 203 204 206 207 209 211 216
334 329 317 304 248 173 167 170 170 169 165 155 135 102 78 43 19 353 338 311 317 302 241 243 249 254 256 258 274 298 297 265 159 170 185 178 176 185 196 177 144 211 294 48 80 358 10 251 250 241 227 224 234 205 217 254 264 271 258 296 294 249 266 294 357 354 183 196 286 215 208 252 252 246 228 198 197 206 208 208 208 206 205 208 210 212 213 217
335 330 323 289 141 136 140 145 154 158 153 145 127 107 99 47 356 347 345 307 301 354 284 234 245 266 274 260 252 240 237 247 197 194 195 187 187 193 185 166 155 189 304 95 154 164 301 247 247 245 212 174 275 240 203 267 274 258 241 263 279 259 233 290 322 13 188 200 269 185 215 269 272 255 239 215 209 211 210 211 213 211 210 211 212 213 214 216
336 332 61 130 132 129 127 127 134 144 142 135 124 125 137 66 334 330 336 303 294 5 32 205 260 282 259 226 232 231 230 234 226 209 202 196 189 186 191 179 141 169 224 191 164 175 246 246 239 234 154 166 262 288 275 275 286 264 233 220 254 260 223 223 245 77 8 311 151 89 354 299 276 250 259 227 209 214 213 210 213 215 216 217 216 214 214 216
339 351 138 137 136 130 125 121 121 132 134 122 122 141 163 357 338 330 340 14 326 350 33 57 345 312 216 208 212 212 230 242 240 219 204 203 192 176 186 176 153 213 225 173 149 197 258 255 228 243 260 169 210 274 252 208 266 293 245 214 230 253 240 186 157 95 21 307 239 106 39 296 302 267 257 246 194 214 210 203 210 214 216 218 218 216 214 216
342 148 144 144 143 134 128 124 121 129 127 113 124 144 208 243 319 326 345 58 39 328 4 18 6 29 212 243 213 177 265 281 262 220 205 209 202 181 157 166 166 225 203 155 150 223 260 251 166 188 245 210 216 260 227 172 196 286 251 209 212 239 236 183 163 143 256 267 266 145 156 256 316 300 257 245 211 222 213 204 210 211 212 214 217 218 216 214
21 155 149 149 149 141 135 137 135 137 129 120 128 107 275 235 315 320 352 54 19 299 332 326 37 139 252 272 198 164 102 326 327 212 204 206 202 188 189 212 197 226 176 124 74 245 229 250 124 172 204 217 232 261 221 169 153 242 256 227 193 221 221 194 176 180 214 216 332 344 143 225 300 278 280 262 218 244 239 224 219 212 211 212 215 217 217 215
157 160 154 156 161 166 175 160 157 155 142 136 132 43 344 263 319 328 81 71 327 301 336 279 278 270 251 248 210 204 253 321 6 252 213 204 199 189 207 215 188 218 165 122 210 263 210 189 216 189 180 216 222 228 199 165 166 245 264 278 250 234 223 193 173 174 207 139 320 303 153 156 274 273 318 26 204 260 245 228 223 215 213 212 212 214 216 215
162 166 166 174 183 195 181 173 181 169 154 154 164 306 305 301 318 9 86 82 308 324 347 309 317 271 223 197 223 233 258 300 21 132 201 197 199 191 225 217 173 163 255 141 207 259 240 218 219 171 169 216 226 231 181 165 211 252 282 297 312 21 34 120 139 131 75 91 253 243 177 173 272 276 313 30 227 253 240 230 222 216 214 212 211 211 212 213
163 174 182 189 194 199 191 193 198 178 173 186 216 282 304 302 337 57 64 348 277 305 309 306 321 306 205 103 276 271 257 253 268 137 141 169 196 199 60 177 137 114 301 348 249 258 273 265 236 184 215 227 242 259 186 178 221 268 329 314 13 43 37 54 71 89 78 291 254 219 180 168 286 275 253 211 225 225 223 235 224 215 215 214 212 210 208 209
168 180 190 196 203 209 203 202 192 187 199 200 220 286 299 307 60 84 95 244 265 316 336 329 326 359 41 71 335 329 343 294 348 99 137 87 168 198 42 49 68 52 2 342 305 294 322 310 226 248 259 258 293 305 292 188 217 91 360 350 48 6 15 34 6 44 96 255 269 212 159 151 240 265 249 233 243 233 209 226 221 206 211 213 213 210 207 207
190 194 203 215 222 220 211 204 189 190 209 210 247 275 267 27 37 83 261 304 316 310 339 325 327 4 28 44 19 331 349 332 352 58 133 61 71 78 35 168 192 15 343 295 297 330 328 276 284 311 275 262 57 10 336 354 43 75 77 59 51 300 1 25 316 28 187 248 262 163 136 138 234 250 260 259 263 258 231 230 228 212 208 211 211 208 206 205
199 204 221 229 224 217 208 203 195 197 227 251 264 258 94 72 48 235 285 337 295 271 297 321 342 11 35 40 10 326 6 11 337 28 76 67 64 37 331 177 145 109 281 243 301 352 327 306 334 350 316 346 76 89 338 322 7 9 188 109 119 169 74 292 275 305 256 266 274 175 163 286 274 263 250 245 259 267 259 251 242 230 218 214 211 206 203 203
170 214 244 223 205 199 199 200 200 206 246 261 241 77 71 77 200 239 296 271 261 321 10 19 339 6 32 43 351 336 31 29 2 31 33 38 55 23 339 354 49 120 147 170 221 327 342 306 320 332 315 339 32 150 167 178 296 304 191 135 126 140 137 250 237 221 256 280 320 300 218 202 227 260 234 233 272 288 288 274 252 239 227 217 210 203 200 201
75 318 224 195 180 190 198 204 209 224 259 249 126 72 78 131 236 237 245 254 287 340 347 14 43 34 11 343 329 357 52 21 17 42 37 44 71 8 336 331 339 70 119 168 235 216 82 256 263 273 281 317 341 263 164 127 174 286 102 79 74 154 160 210 200 187 210 304 301 248 240 214 214 263 267 277 296 308 322 296 247 229 216 202 199 198 197 198
28 303 194 180 179 193 201 214 220 249 264 226 83 61 119 184 196 184 197 222 289 26 347 1 37 55 353 327 333 346 12 31 35 45 28 35 70 354 343 281 301 40 122 180 222 248 22 272 275 318 313 305 342 304 285 100 139 305 57 175 232 164 141 124 293 317 67 327 273 241 262 287 320 302 300 333 329 335 359 349 215 189 188 186 190 194 194 195
21 265 199 181 185 196 208 225 243 288 273 149 90 88 209 187 171 204 234 223 204 93 87 52 5 51 349 327 329 329 353 21 30 51 36 3 6 346 335 292 284 18 156 182 216 202 117 273 289 348 321 304 341 329 295 90 121 118 116 217 236 54 95 104 9 347 36 272 277 310 262 292 338 312 307 340 345 333 342 345 323 170 179 186 190 191 193 194
7 269 190 176 183 197 220 259 317 311 295 92 83 109 175 38 354 288 324 360 73 61 79 102 242 98 136 140 317 324 357 13 360 37 72 18 13 5 355 316 305 345 349 142 158 18 95 292 290 294 267 300 344 18 316 336 69 128 180 186 111 91 20 20 49 308 330 281 290 309 299 275 229 237 283 307 315 314 315 320 299 188 181 188 190 188 191 192
348 304 163 173 182 164 18 343 330 321 35 82 82 136 146 165 355 13 18 34 74 66 82 125 97 70 99 115 280 317 8 35 8 55 83 61 39 26 22 360 301 327 341 21 111 317 65 83 278 280 282 306 351 46 17 309 335 12 23 27 49 135 155 151 159 168 229 257 271 310 329 286 234 222 232 258 276 286 278 278 274 233 195 189 188 187 189 190
323 330 140 176 177 67 14 1 357 21 73 102 153 183 130 182 10 28 44 66 65 55 90 181 69 71 34 27 7 309 18 51 67 77 63 54 91 6 13 15 307 309 335 19 76 354 24 86 260 291 331 1 349 30 183 238 288 350 12 29 32 26 74 73 224 159 151 188 206 293 314 277 255 216 211 263 291 286 255 266 296 261 207 190 194 192 191 193
284 348 121 171 158 21 6 14 33 70 84 99 128 92 28 84 35 27 46 68 68 59 82 109 95 100 83 24 14 324 8 34 30 56 63 27 71 108 356 359 312 278 335 23 41 10 25 111 233 304 341 338 263 257 238 236 218 166 125 170 127 98 77 63 338 306 68 174 188 166 268 272 265 231 256 284 301 294 260 206 181 255 209 186 194 196 196 197
214 130 104 159 134 7 15 28 24 58 83 89 78 60 61 70 44 18 34 54 58 51 59 75 85 78 70 92 11 15 47 33 7 36 55 350 136 181 336 352 343 266 148 36 298 273 146 101 75 280 274 262 266 274 281 279 245 139 137 229 152 101 102 110 238 283 329 310 229 142 233 267 269 294 316 308 321 331 305 178 152 180 195 182 186 192 199 203
151 113 98 153 96 15 38 47 21 31 59 90 90 64 59 62 46 32 32 34 37 38 42 43 42 57 54 47 78 50 42 42 13 20 359 313 308 244 334 357 359 6 94 30 298 305 100 83 31 300 293 307 302 300 317 344 23 89 267 264 146 122 137 153 173 186 288 287 251 147 248 271 281 312 348 349 10 22 13 16 147 163 172 174 180 183 189 201
113 89 62 85 57 16 45 104 96 73 55 63 72 58 57 60 44 38 41 21 21 55 67 34 17 40 35 39 75 65 16 83 87 357 4 256 313 296 339 359 3 19 30 357 256 342 360 74 63 21 341 341 349 340 333 344 20 80 272 277 162 124 120 129 108 80 252 250 172 157 230 254 271 331 6 7 16 24 12 2 353 204 169 162 170 173 175 190
115 79 50 63 69 44 60 118 122 109 95 66 63 39 49 61 44 49 70 50 44 67 83 33 24 45 34 36 53 25 7 85 105 348 12 306 296 289 339 349 351 4 1 339 306 315 311 134 112 108 97 276 282 285 271 291 318 301 287 299 355 75 80 93 81 83 220 279 14 162 232 281 313 350 358 359 8 3 350 355 355 322 240 158 161 163 169 179
112 83 42 54 66 62 70 96 106 108 121 100 71 24 39 80 36 49 67 65 52 57 57 45 40 56 44 41 52 14 354 23 61 37 14 320 285 285 332 337 338 347 353 357 358 10 125 85 113 151 165 188 202 228 236 242 300 293 307 318 335 60 77 82 75 102 222 314 324 217 231 312 328 351 353 346 352 345 329 341 349 340 334 268 164 165 173 180
63 50 359 50 64 60 61 61 67 99 134 124 110 19 26 53 322 25 47 55 60 66 64 41 24 54 57 50 75 28 340 351 9 17 342 300 265 294 325 330 338 354 5 7 2 27 109 22 98 156 195 223 209 241 278 296 265 262 294 320 328 50 75 72 41 296 274 359 288 266 318 334 321 347 349 336 339 335 316 324 334 338 343 330 242 178 177 185
81 92 56 68 89 58 51 38 48 79 90 82 97 91 32 52 57 51 33 22 34 61 79 33 7 41 109 105 111 91 346 5 358 340 298 299 303 325 334 331 335 4 23 15 2 46 117 242 226 169 266 277 262 284 300 295 256 250 337 346 337 27 89 92 17 305 297 197 250 288 321 302 319 349 346 331 332 322 303 304 317 341 358 350 321 234 183 186
94 99 71 73 86 69 62 48 62 74 64 41 60 56 49 71 61 336 346 23 13 9 49 96 305 320 18 115 114 115 42 64 331 306 252 285 319 336 336 315 308 3 19 12 359 51 115 244 251 148 307 302 302 308 312 302 267 310 38 12 350 4 95 91 57 312 284 239 251 293 290 235 346 355 337 325 333 328 306 299 352 22 10 11 354 328 175 183
90 99 90 88 77 47 40 46 63 72 49 29 54 41 45 79 41 4 28 48 25 330 28 108 250 291 304 92 89 110 212 176 200 253 227 236 320 269 236 261 262 351 5 358 335 17 57 275 295 72 27 306 307 345 346 329 297 81 45 21 7 1 51 71 54 321 302 293 306 324 330 280 345 344 330 332 346 347 338 9 45 29 11 19 21 17 33 348
88 98 101 101 70 17 19 34 48 70 44 20 57 37 357 32 21 110 49 40 65 84 30 142 228 267 348 29 30 298 286 252 231 256 256 248 259 252 247 260 261 328 349 347 321 346 39 349 342 60 51 292 302 1 351 337 360 49 41 20 7 356 25 64 55 339 327 316 314 344 17 335 326 332 329 341 357 351 340 5 34 28 15 16 7 356 344 303
85 90 90 97 75 4 8 22 30 66 73 339 43 91 23 16 204 147 98 36 44 61 50 71 142 130 25 358 320 305 311 304 290 290 288 274 268 267 268 282 295 293 262 241 319 303 121 91 342 57 51 272 294 346 349 2 8 349 20 18 359 349 6 69 80 1 343 336 331 359 4 319 317 330 336 347 355 341 331 356 29 35 29 28 1 330 308 283
Height
1527 1527 1527 1526 1526 1526 1525 1525 1525 1525 1525 1524 1524 1524 1524 1524 1523 1523 1523 1523 1522 1522 1522 1521 1521 1520 1520 1519 1519 1519 1519 1518 1518 1518 1516 1516 1518 1519 1519 1519 1519 1519 1519 1519 1520 1520 1520 1521 1521 1521 1521 1522 1522 1522 1523 1523 1523 1523 1526 1531 1533 1534 1532 1528 1527 1527 1526 1525 1523 1522 1522 1523 1524 1525 1525 1526 1528 1528 1530 1531 1531 1532 1532 1533 1534 1535 1537 1540
1526 1526 1525 1525 1525 1525 1524 1524 1524 1523 1523 1523 1523 1523 1523 1522 1522 1522 1522 1522 1521 1521 1521 1520 1520 1520 1519 1518 1518 1518 1517 1517 1517 1516 1514 1515 1517 1518 1518 1519 1519 1519 1519 1520 1519 1520 1520 1521 1521 1521 1521 1522 1522 1522 1523 1523 1523 1524 1528 1532 1531 1530 1527 1522 1523 1523 1523 1524 1523 1522 1522 1523 1524 1524 1524 1527 1529 1529 1530 1531 1531 1532 1532 1533 1535 1536 1538 1540
1525 1525 1525 1524 1524 1523 1523 1523 1522 1522 1522 1522 1522 1521 1521 1521 1521 1521 1521 1521 1520 1520 1520 1519 1519 1519 1518 1518 1517 1517 1516 1516 1515 1513 1513 1515 1516 1517 1518 1518 1519 1519 1519 1520 1520 1520 1521 1521 1521 1521 1522 1522 1522 1522 1522 1522 1523 1523 1527 1532 1529 1524 1523 1521 1522 1522 1522 1522 1522 1522 1522 1523 1523 1523 1524 1526 1529 1529 1529 1530 1530 1531 1532 1533 1535 1536 1538 1541
1524 1524 1524 1523 1523 1522 1522 1521 1521 1521 1521 1520 1520 1520 1520 1520 1520 1520 1520 1520 1520 1520 1519 1519 1518 1518 1518 1517 1517 1516 1515 1515 1512 1510 1512 1514 1515 1516 1517 1517 1518 1519 1520 1520 1520 1520 1521 1521 1521 1521 1522 1522 1522 1522 1522 1522 1523 1523 1525 1529 1526 1522 1523 1522 1521 1522 1522 1522 1522 1523 1523 1523 1523 1523 1524 1525 1530 1531 1528 1526 1527 1528 1530 1532 1534 1536 1538 1540
1524 1523 1523 1522 1522 1521 1521 1520 1520 1519 1519 1519 1519 1519 1519 1519 1519 1519 1519 1519 1519 1519 1518 1518 1518 1518 1517 1516 1517 1515 1516 1516 1511 1509 1511 1512 1514 1515 1516 1517 1518 1519 1519 1520 1520 1520 1521 1521 1521 1522 1523 1522 1522 1523 1522 1521 1522 1523 1524 1524 1522 1522 1523 1521 1521 1523 1522 1523 1523 1523 1523 1523 1522 1523 1523 1524 1528 1528 1524 1524 1525 1526 1527 1529 1532 1534 1538 1540
1523 1522 1522 1521 1521 1520 1520 1519 1519 1518 1518 1517 1517 1517 1517 1517 1517 1518 1518 1518 1518 1518 1518 1517 1517 1517 1517 1516 1516 1515 1516 1516 1510 1509 1511 1512 1513 1514 1515 1516 1517 1518 1519 1520 1520 1520 1521 1521 1522 1522 1523 1523 1523 1523 1522 1521 1521 1524 1524 1521 1521 1522 1522 1521 1521 1522 1523 1523 1523 1523 1523 1523 1522 1523 1523 1523 1523 1524 1523 1524 1526 1527 1528 1529 1531 1533 1536 1539
1522 1521 1521 1520 1519 1519 1518 1518 1517 1517 1517 1516 1516 1516 1516 1516 1516 1516 1516 1517 1517 1517 1517 1517 1517 1516 1516 1516 1515 1515 1515 1512 1509 1510 1511 1512 1513 1514 1515 1516 1516 1518 1518 1519 1520 1520 1521 1521 1522 1522 1523 1523 1523 1522 1522 1521 1521 1524 1524 1521 1521 1521 1521 1521 1521 1522 1523 1523 1523 1523 1523 1522 1522 1523 1523 1522 1522 1523 1524 1524 1526 1528 1529 1530 1532 1533 1536 1538
1521 1520 1519 1519 1518 1518 1517 1517 1516 1516 1515 1515 1515 1515 1515 1514 1514 1515 1515 1515 1516 1516 1516 1516 1516 1516 1516 1515 1515 1515 1513 1511 1510 1510 1511 1512 1513 1514 1515 1515 1516 1517 1517 1519 1519 1520 1521 1521 1522 1522 1523 1523 1522 1521 1521 1522 1522 1523 1523 1521 1521 1521 1521 1521 1522 1522 1522 1523 1523 1523 1523 1522 1522 1522 1522 1522 1523 1523 1524 1524 1526 1528 1529 1531 1532 1534 1536 1538
1519 1519 1518 1518 1517 1516 1516 1515 1515 1514 1514 1514 1514 1513 1513 1513 1513 1513 1514 1514 1514 1515 1515 1515 1515 1515 1515 1515 1515 1514 1511 1509 1510 1510 1511 1512 1513 1514 1515 1515 1516 1516 1517 1519 1519 1520 1521 1521 1521 1522 1522 1522 1521 1521 1520 1523 1524 1521 1521 1520 1520 1521 1521 1521 1522 1522 1523 1523 1523 1523 1522 1522 1522 1522 1522 1521 1522 1523 1523 1525 1525 1527 1529 1531 1533 1534 1536 1538
1518 1517 1517 1516 1516 1515 1515 1514 1514 1513 1513 1512 1512 1512 1512 1512 1512 1512 1512 1513 1513 1514 1514 1514 1514 1514 1515 1514 1515 1514 1509 1509 1510 1510 1511 1512 1513 1514 1515 1515 1516 1516 1517 1518 1519 1520 1520 1520 1521 1522 1522 1521 1521 1521 1520 1522 1522 1519 1519 1520 1521 1521 1521 1521 1522 1522 1523 1522 1522 1523 1523 1522 1522 1523 1524 1521 1521 1522 1523 1525 1526 1527 1529 1530 1533 1534 1536 1538
1517 1516 1516 1515 1514 1514 1513 1513 1512 1512 1511 1511 1511 1511 1511 1511 1511 1511 1511 1511 1512 1512 1513 1513 1513 1513 1514 1513 1514 1512 1508 1509 1510 1510 1511 1512 1513 1514 1515 1515 1516 1516 1517 1518 1519 1519 1519 1521 1522 1522 1522 1521 1520 1521 1519 1519 1519 1519 1520 1521 1522 1521 1521 1521 1521 1522 1522 1522 1522 1522 1522 1522 1522 1523 1522 1520 1521 1522 1523 1525 1526 1527 1529 1530 1533 1535 1536 1538
1515 1515 1514 1513 1513 1512 1512 1511 1511 1510 1510 1510 1510 1510 1510 1510 1510 1510 1510 1510 1510 1511 1512 1512 1512 1512 1513 1512 1511 1509 1508 1509 1509 1510 1511 1511 1513 1514 1514 1515 1515 1516 1516 1517 1518 1519 1520 1521 1522 1522 1522 1521 1521 1521 1520 1518 1519 1519 1520 1524 1524 1522 1522 1521 1520 1521 1522 1522 1522 1522 1526 1525 1523 1522 1520 1520 1521 1523 1523 1525 1527 1528 1529 1531 1533 1535 1536 1538
1514 1513 1513 1512 1511 1511 1510 1510 1509 1509 1509 1509 1509 1508 1508 1508 1509 1509 1509 1509 1509 1510 1510 1511 1511 1512 1512 1510 1507 1507 1507 1508 1508 1510 1511 1512 1513 1513 1514 1515 1515 1515 1516 1517 1518 1520 1521 1521 1521 1521 1521 1521 1521 1521 1520 1519 1520 1521 1522 1524 1527 1527 1525 1520 1519 1521 1521 1523 1521 1524 1533 1530 1522 1520 1519 1520 1521 1522 1524 1526 1527 1529 1530 1532 1533 1534 1536 1537
1513 1512 1511 1510 1510 1509 1509 1508 1508 1508 1508 1508 1507 1508 1508 1508 1508 1508 1508 1508 1509 1509 1509 1510 1510 1511 1511 1509 1506 1506 1507 1507 1508 1509 1511 1512 1513 1513 1514 1514 1514 1515 1516 1517 1518 1519 1520 1521 1521 1521 1520 1520 1520 1520 1521 1521 1522 1524 1525 1527 1531 1534 1528 1520 1520 1521 1521 1523 1520 1524 1536 1530 1520 1519 1518 1519 1520 1521 1523 1525 1527 1529 1530 1531 1532 1534 1535 1536
1512 1511 1510 1509 1509 1508 1508 1508 1507 1507 1507 1507 1507 1507 1507 1507 1507 1507 1508 1508 1508 1508 1509 1509 1510 1511 1510 1507 1505 1506 1506 1507 1508 1509 1511 1512 1513 1513 1514 1515 1515 1515 1516 1517 1517 1518 1519 1520 1521 1520 1519 1519 1519 1521 1524 1525 1524 1526 1530 1533 1535 1536 1530 1522 1519 1520 1521 1523 1520 1525 1534 1528 1520 1518 1517 1519 1520 1520 1522 1524 1526 1527 1529 1531 1532 1533 1535 1536
1510 1510 1509 1508 1508 1507 1507 1507 1506 1506 1506 1506 1506 1506 1506 1507 1507 1507 1507 1507 1508 1508 1508 1509 1510 1510 1510 1506 1505 1506 1506 1507 1508 1510 1511 1511 1513 1513 1514 1515 1515 1515 1516 1516 1517 1518 1519 1519 1519 1519 1519 1518 1521 1524 1527 1530 1530 1529 1533 1536 1535 1535 1533 1526 1520 1519 1520 1521 1522 1525 1529 1526 1519 1517 1517 1518 1519 1520 1521 1523 1525 1526 1528 1530 1531 1532 1534 1536
1510 1509 1508 1507 1507 1506 1506 1506 1505 1505 1505 1506 1506 1506 1506 1506 1506 1507 1507 1507 1507 1508 1508 1509 1509 1510 1508 1505 1505 1506 1506 1507 1508 1509 1510 1511 1512 1513 1514 1514 1514 1515 1515 1516 1517 1517 1518 1519 1519 1519 1518 1520 1521 1524 1533 1538 1535 1533 1534 1535 1534 1533 1534 1530 1523 1519 1519 1521 1524 1524 1526 1524 1518 1516 1517 1518 1519 1520 1521 1522 1523 1525 1527 1528 1530 1532 1533 1534
1509 1508 1507 1506 1506 1506 1505 1505 1505 1505 1505 1505 1505 1506 1506 1506 1506 1506 1507 1507 1507 1508 1509 1509 1509 1511 1509 1505 1505 1506 1506 1507 1507 1507 1508 1509 1511 1513 1514 1514 1514 1515 1515 1515 1516 1516 1517 1517 1518 1520 1521 1523 1524 1526 1536 1539 1533 1532 1533 1533 1533 1532 1532 1531 1525 1520 1519 1521 1524 1526 1527 1522 1517 1516 1517 1518 1519 1519 1519 1520 1522 1523 1525 1527 1529 1530 1531 1533
1508 1507 1506 1505 1505 1505 1505 1504 1504 1505 1505 1505 1505 1506 1506 1506 1506 1506 1507 1507 1507 1507 1508 1507 1507 1509 1509 1505 1504 1505 1505 1506 1506 1506 1507 1508 1510 1512 1513 1514 1514 1514 1515 1516 1516 1515 1516 1517 1520 1524 1526 1526 1525 1525 1530 1529 1527 1528 1529 1530 1532 1532 1529 1527 1523 1518 1518 1522 1524 1524 1524 1520 1517 1516 1516 1516 1517 1519 1519 1520 1521 1522 1524 1525 1527 1528 1530 1531
1507 1506 1505 1505 1504 1504 1504 1504 1504 1504 1505 1505 1505 1506 1506 1506 1507 1507 1507 1506 1506 1505 1505 1506 1505 1505 1505 1504 1504 1505 1505 1505 1505 1506 1507 1507 1509 1511 1512 1513 1514 1514 1515 1516 1517 1515 1516 1521 1525 1525 1525 1524 1523 1522 1522 1522 1524 1526 1527 1529 1530 1531 1527 1521 1520 1517 1515 1522 1522 1520 1521 1519 1516 1514 1513 1514 1515 1516 1518 1519 1520 1521 1522 1524 1525 1526 1527 1528
1506 1506 1504 1504 1504 1504 1504 1504 1504 1504 1505 1505 1506 1506 1506 1506 1507 1508 1506 1504 1504 1504 1504 1505 1505 1504 1503 1503 1504 1504 1505 1505 1505 1506 1507 1508 1509 1511 1512 1513 1514 1517 1516 1515 1517 1515 1517 1524 1525 1522 1520 1519 1520 1520 1520 1522 1523 1524 1527 1529 1528 1529 1525 1518 1518 1516 1514 1520 1520 1518 1521 1519 1514 1512 1512 1513 1513 1513 1514 1516 1518 1519 1520 1522 1523 1524 1525 1526
1506 1505 1504 1504 1503 1503 1504 1504 1504 1504 1505 1505 1506 1506 1507 1507 1507 1507 1506 1505 1503 1503 1504 1504 1504 1503 1503 1504 1504 1505 1505 1505 1506 1506 1507 1508 1509 1510 1512 1512 1515 1517 1516 1515 1518 1520 1523 1525 1521 1517 1517 1518 1519 1519 1521 1522 1523 1525 1527 1529 1529 1526 1522 1518 1517 1517 1517 1520 1521 1520 1521 1516 1511 1510 1510 1510 1510 1509 1510 1511 1513 1515 1518 1519 1520 1522 1523 1525
1506 1504 1504 1504 1503 1504 1504 1504 1504 1504 1505 1506 1506 1507 1507 1507 1507 1507 1507 1506 1504 1503 1503 1503 1503 1503 1503 1503 1504 1504 1505 1505 1506 1506 1506 1508 1508 1509 1511 1512 1515 1517 1517 1518 1520 1525 1527 1522 1516 1514 1515 1517 1519 1519 1521 1523 1523 1524 1526 1529 1527 1522 1523 1523 1519 1519 1519 1519 1521 1520 1519 1514 1509 1508 1506 1506 1506 1506 1507 1508 1510 1512 1513 1515 1517 1519 1520 1522
1505 1504 1504 1504 1504 1504 1504 1504 1504 1505 1506 1506 1506 1507 1507 1507 1507 1507 1507 1506 1505 1503 1503 1503 1503 1503 1503 1503 1503 1504 1505 1505 1505 1505 1506 1507 1507 1509 1510 1511 1515 1517 1517 1517 1519 1524 1523 1516 1512 1513 1515 1517 1520 1519 1520 1524 1524 1522 1521 1525 1523 1517 1520 1522 1519 1520 1520 1520 1519 1519 1522 1515 1507 1508 1505 1502 1504 1505 1505 1507 1508 1509 1510 1512 1514 1516 1517 1519
1505 1504 1504 1504 1505 1505 1505 1505 1505 1506 1506 1506 1507 1507 1507 1507 1506 1507 1506 1507 1509 1505 1503 1504 1503 1502 1503 1503 1504 1504 1504 1504 1504 1504 1505 1505 1506 1509 1509 1510 1514 1517 1517 1517 1519 1522 1518 1512 1511 1514 1515 1517 1520 1519 1519 1521 1525 1523 1516 1514 1514 1513 1515 1518 1519 1521 1525 1526 1517 1518 1531 1522 1506 1507 1506 1502 1504 1503 1503 1504 1505 1506 1508 1510 1511 1513 1515 1516
1504 1504 1504 1505 1505 1505 1506 1506 1505 1507 1506 1507 1508 1507 1508 1507 1507 1507 1506 1510 1514 1508 1504 1505 1504 1504 1503 1503 1503 1503 1507 1505 1501 1503 1504 1504 1506 1507 1510 1511 1512 1515 1515 1516 1519 1518 1514 1509 1510 1513 1515 1516 1519 1519 1516 1517 1525 1526 1511 1503 1507 1510 1512 1516 1518 1521 1526 1527 1517 1516 1531 1528 1511 1503 1503 1502 1504 1502 1501 1501 1501 1502 1504 1505 1507 1509 1511 1514
1504 1504 1505 1505 1506 1506 1506 1506 1507 1507 1506 1508 1508 1507 1508 1507 1507 1507 1507 1520 1523 1510 1506 1507 1505 1505 1503 1503 1503 1505 1511 1507 1501 1502 1502 1504 1506 1506 1510 1512 1512 1513 1511 1515 1521 1517 1510 1510 1511 1512 1514 1516 1518 1518 1514 1513 1522 1522 1504 1500 1507 1508 1510 1514 1515 1519 1521 1521 1521 1519 1523 1531 1523 1507 1502 1504 1503 1503 1502 1500 1499 1498 1500 1501 1502 1505 1507 1510
1504 1505 1505 1506 1506 1506 1506 1506 1507 1507 1507 1509 1507 1508 1508 1507 1509 1506 1511 1532 1530 1509 1506 1507 1503 1504 1503 1503 1503 1503 1506 1504 1504 1505 1501 1503 1506 1505 1509 1510 1511 1512 1509 1515 1523 1515 1508 1510 1511 1511 1514 1517 1515 1511 1508 1509 1516 1510 1498 1500 1504 1504 1507 1509 1513 1519 1518 1520 1528 1525 1521 1533 1530 1508 1502 1506 1503 1503 1500 1496 1495 1493 1494 1496 1498 1501 1503 1506
1505 1505 1505 1506 1506 1506 1506 1507 1507 1507 1508 1508 1507 1509 1507 1507 1509 1507 1516 1533 1525 1507 1507 1506 1503 1504 1503 1503 1504 1502 1502 1503 1504 1505 1501 1504 1505 1505 1508 1508 1508 1511 1509 1513 1517 1512 1507 1508 1508 1509 1513 1513 1507 1503 1503 1507 1509 1501 1497 1500 1500 1504 1506 1508 1515 1517 1519 1528 1530 1523 1521 1532 1528 1506 1501 1507 1503 1499 1494 1489 1489 1488 1489 1491 1493 1497 1500 1503
1505 1505 1506 1506 1506 1506 1507 1507 1507 1508 1508 1508 1509 1508 1507 1508 1509 1515 1529 1532 1519 1509 1507 1504 1504 1504 1503 1504 1505 1502 1502 1503 1502 1502 1502 1504 1505 1505 1507 1507 1507 1510 1512 1512 1512 1509 1506 1505 1505 1506 1507 1504 1499 1498 1499 1501 1501 1498 1500 1502 1503 1508 1508 1512 1517 1515 1526 1536 1524 1516 1517 1525 1527 1508 1498 1501 1494 1487 1485 1485 1485 1484 1486 1488 1489 1492 1495 1499
1505 1506 1506 1506 1506 1506 1506 1507 1507 1508 1507 1508 1509 1507 1508 1509 1510 1524 1536 1526 1516 1513 1507 1505 1506 1503 1504 1507 1508 1505 1503 1503 1501 1503 1505 1505 1506 1507 1508 1510 1510 1513 1517 1515 1512 1509 1505 1505 1505 1502 1500 1499 1498 1498 1497 1497 1498 1500 1504 1505 1509 1514 1513 1518 1521 1520 1536 1539 1518 1513 1516 1524 1531 1512 1493 1490 1483 1480 1483 1482 1481 1482 1482 1483 1485 1488 1491 1495
1505 1506 1506 1506 1506 1506 1506 1507 1507 1507 1508 1508 1508 1508 1509 1513 1519 1531 1531 1520 1519 1518 1511 1510 1508 1505 1507 1508 1509 1508 1506 1506 1504 1504 1506 1508 1510 1511 1513 1516 1515 1520 1526 1522 1517 1513 1508 1505 1503 1501 1499 1498 1500 1503 1501 1498 1499 1503 1506 1509 1517 1524 1525 1531 1534 1534 1540 1530 1516 1516 1517 1522 1525 1505 1488 1485 1480 1478 1479 1477 1477 1477 1478 1479 1481 1485 1487 1491
1505 1505 1505 1505 1505 1505 1506 1506 1506 1507 1508 1507 1508 1508 1509 1520 1532 1532 1525 1521 1522 1516 1510 1512 1509 1508 1510 1510 1511 1510 1507 1509 1506 1505 1508 1508 1512 1515 1515 1515 1514 1520 1526 1525 1523 1519 1514 1509 1504 1503 1501 1498 1500 1506 1508 1505 1503 1505 1506 1510 1520 1529 1537 1542 1542 1542 1538 1523 1516 1518 1517 1519 1514 1495 1484 1481 1476 1474 1473 1472 1473 1473 1474 1476 1477 1481 1485 1487
1505 1505 1505 1505 1504 1505 1505 1505 1506 1507 1507 1507 1508 1508 1513 1528 1534 1526 1522 1522 1517 1512 1511 1512 1511 1511 1512 1513 1514 1510 1510 1512 1508 1507 1510 1510 1515 1518 1517 1515 1514 1516 1519 1523 1524 1522 1525 1522 1510 1506 1505 1500 1499 1502 1506 1506 1505 1505 1504 1507 1513 1521 1533 1539 1537 1537 1532 1522 1519 1521 1518 1516 1507 1490 1479 1475 1473 1472 1471 1469 1470 1470 1472 1474 1476 1480 1483 1485
1505 1504 1505 1504 1504 1505 1505 1506 1506 1506 1507 1507 1507 1511 1521 1532 1531 1524 1522 1519 1515 1514 1513 1512 1513 1516 1516 1515 1513 1510 1511 1513 1510 1511 1513 1515 1520 1521 1519 1517 1515 1515 1518 1524 1524 1521 1528 1525 1510 1504 1503 1501 1501 1498 1497 1502 1506 1507 1505 1508 1511 1511 1517 1525 1527 1526 1525 1525 1524 1521 1514 1504 1494 1482 1474 1475 1474 1471 1470 1468 1468 1470 1471 1473 1476 1478 1481 1484
1505 1504 1504 1504 1505 1505 1505 1506 1506 1506 1507 1505 1508 1517 1524 1525 1524 1522 1519 1515 1515 1516 1515 1516 1517 1520 1522 1519 1516 1513 1511 1512 1513 1514 1517 1519 1521 1521 1520 1518 1515 1515 1516 1521 1523 1522 1527 1523 1508 1505 1503 1499 1501 1499 1495 1500 1506 1508 1508 1509 1508 1504 1506 1517 1524 1523 1526 1531 1526 1519 1510 1497 1492 1485 1474 1474 1474 1470 1471 1469 1468 1470 1471 1472 1475 1476 1479 1482
1504 1504 1504 1504 1505 1505 1505 1506 1505 1506 1505 1504 1511 1521 1522 1518 1517 1517 1514 1512 1514 1514 1516 1523 1522 1523 1526 1524 1521 1517 1513 1513 1515 1517 1521 1523 1522 1521 1520 1517 1514 1514 1514 1516 1519 1520 1524 1522 1510 1507 1507 1500 1498 1499 1496 1495 1500 1507 1510 1507 1504 1504 1505 1513 1524 1526 1531 1537 1526 1515 1512 1504 1502 1496 1479 1473 1474 1472 1472 1471 1469 1470 1470 1472 1474 1475 1478 1480
1505 1505 1505 1505 1505 1505 1505 1505 1505 1505 1504 1505 1514 1520 1519 1517 1515 1514 1513 1512 1513 1513 1518 1525 1523 1522 1526 1526 1524 1520 1516 1518 1519 1520 1523 1525 1524 1522 1521 1519 1515 1512 1512 1513 1516 1517 1521 1524 1516 1508 1509 1504 1497 1500 1503 1498 1496 1500 1503 1501 1503 1511 1514 1516 1525 1530 1535 1542 1531 1517 1515 1510 1505 1497 1483 1477 1477 1474 1473 1472 1471 1471 1470 1472 1474 1476 1479 1480
1505 1505 1505 1505 1505 1505 1505 1505 1504 1503 1503 1509 1518 1520 1517 1517 1515 1513 1513 1512 1513 1515 1519 1523 1522 1522 1523 1525 1525 1522 1520 1522 1522 1523 1525 1526 1527 1523 1520 1521 1517 1513 1512 1512 1515 1516 1518 1526 1524 1510 1506 1506 1502 1505 1512 1508 1500 1498 1499 1501 1502 1509 1514 1517 1523 1527 1531 1541 1538 1524 1517 1508 1496 1489 1482 1478 1477 1475 1474 1473 1472 1472 1472 1473 1475 1476 1478 1480
1506 1506 1506 1505 1505 1505 1505 1504 1503 1503 1506 1514 1519 1518 1516 1516 1515 1513 1513 1512 1513 1516 1519 1521 1522 1523 1523 1523 1524 1523 1522 1523 1523 1524 1525 1526 1527 1524 1520 1521 1519 1514 1512 1511 1514 1516 1517 1525 1527 1514 1506 1510 1511 1510 1513 1512 1508 1505 1506 1507 1507 1509 1512 1514 1518 1520 1522 1531 1536 1533 1524 1506 1488 1483 1481 1478 1476 1475 1475 1474 1474 1474 1473 1473 1475 1477 1478 1479
1506 1506 1506 1505 1505 1505 1504 1505 1505 1506 1511 1516 1517 1516 1516 1515 1515 1515 1514 1513 1514 1516 1518 1520 1521 1523 1524 1524 1525 1524 1522 1524 1524 1524 1526 1526 1527 1526 1522 1519 1519 1516 1514 1514 1515 1517 1518 1522 1526 1522 1516 1515 1514 1509 1507 1508 1508 1508 1510 1509 1507 1510 1515 1522 1526 1521 1517 1522 1527 1530 1526 1504 1484 1482 1482 1478 1476 1475 1474 1473 1473 1474 1473 1473 1475 1477 1478 1480
1506 1507 1506 1505 1505 1505 1504 1506 1508 1509 1512 1516 1516 1516 1515 1515 1516 1517 1516 1515 1516 1516 1517 1519 1521 1523 1525 1524 1525 1524 1524 1526 1527 1526 1527 1527 1526 1525 1522 1518 1518 1516 1515 1518 1517 1515 1516 1520 1524 1524 1519 1516 1512 1507 1506 1507 1504 1505 1509 1508 1506 1507 1514 1528 1535 1526 1521 1523 1520 1522 1522 1501 1483 1482 1482 1479 1477 1475 1474 1472 1471 1473 1473 1473 1475 1477 1479 1480
1506 1506 1506 1505 1505 1505 1505 1509 1512 1512 1514 1515 1515 1515 1515 1516 1518 1518 1517 1517 1518 1518 1519 1521 1522 1523 1524 1524 1524 1525 1526 1528 1529 1527 1527 1527 1524 1522 1521 1518 1516 1515 1515 1518 1518 1515 1516 1522 1526 1525 1518 1513 1510 1506 1503 1504 1505 1507 1508 1507 1506 1507 1510 1518 1524 1523 1526 1526 1518 1522 1522 1501 1483 1483 1482 1480 1478 1475 1475 1474 1472 1473 1473 1473 1476 1477 1479 1481
1506 1506 1506 1506 1506 1505 1506 1511 1515 1515 1516 1515 1515 1517 1517 1518 1519 1519 1520 1520 1520 1520 1522 1524 1524 1523 1524 1524 1524 1526 1527 1528 1530 1528 1527 1528 1524 1521 1520 1519 1517 1516 1516 1517 1517 1516 1519 1525 1529 1532 1531 1526 1521 1519 1512 1507 1508 1510 1510 1507 1505 1506 1507 1510 1516 1522 1528 1524 1517 1520 1516 1497 1485 1484 1482 1481 1479 1476 1477 1477 1476 1475 1474 1475 1477 1478 1480 1482
1507 1507 1507 1506 1507 1506 1507 1511 1513 1515 1517 1517 1518 1521 1520 1520 1522 1521 1521 1522 1521 1522 1523 1525 1524 1524 1524 1525 1525 1527 1527 1527 1529 1529 1528 1527 1524 1520 1520 1519 1518 1517 1516 1516 1515 1514 1519 1525 1527 1533 1541 1541 1537 1534 1524 1516 1513 1512 1510 1507 1504 1504 1506 1509 1518 1527 1528 1524 1519 1517 1510 1496 1488 1486 1483 1482 1482 1482 1481 1479 1478 1478 1477 1477 1478 1479 1481 1482
1507 1508 1509 1508 1508 1508 1509 1511 1511 1513 1517 1518 1521 1523 1523 1524 1524 1522 1522 1523 1523 1523 1524 1525 1525 1525 1526 1526 1528 1529 1528 1527 1529 1529 1529 1528 1525 1521 1520 1519 1518 1517 1516 1515 1513 1513 1519 1523 1523 1527 1532 1532 1530 1525 1519 1517 1517 1515 1511 1507 1506 1507 1506 1508 1520 1528 1527 1526 1523 1518 1516 1509 1498 1494 1492 1488 1487 1488 1486 1482 1480 1479 1479 1479 1480 1480 1481 1483
1508 1511 1512 1511 1511 1511 1511 1512 1513 1514 1516 1518 1522 1524 1525 1525 1525 1523 1523 1523 1524 1524 1525 1526 1525 1526 1528 1528 1530 1532 1530 1529 1529 1529 1529 1528 1525 1522 1520 1518 1518 1517 1515 1515 1513 1514 1519 1523 1523 1524 1522 1520 1520 1518 1515 1517 1518 1515 1513 1511 1511 1510 1507 1512 1522 1523 1524 1528 1523 1515 1517 1516 1507 1503 1500 1495 1491 1489 1486 1484 1483 1481 1481 1481 1482 1482 1482 1483
1509 1512 1513 1513 1514 1516 1516 1516 1515 1515 1516 1518 1521 1524 1525 1526 1526 1526 1525 1524 1524 1524 1525 1528 1528 1527 1529 1528 1530 1533 1532 1532 1532 1530 1529 1528 1526 1524 1521 1518 1517 1517 1516 1516 1514 1514 1520 1523 1523 1523 1521 1518 1517 1517 1516 1517 1516 1514 1514 1516 1517 1514 1512 1517 1523 1522 1523 1526 1520 1513 1514 1513 1509 1507 1503 1498 1495 1491 1488 1486 1485 1483 1482 1482 1484 1484 1483 1483
1510 1512 1514 1514 1515 1517 1518 1518 1517 1516 1518 1519 1522 1525 1526 1527 1527 1527 1526 1525 1526 1525 1526 1529 1530 1528 1528 1528 1529 1532 1533 1534 1535 1532 1529 1528 1527 1527 1525 1522 1518 1517 1516 1517 1516 1516 1520 1522 1522 1523 1523 1518 1516 1518 1517 1516 1515 1514 1515 1517 1518 1517 1516 1519 1524 1526 1523 1519 1515 1513 1512 1509 1508 1507 1503 1499 1496 1492 1490 1488 1485 1484 1483 1483 1485 1486 1485 1485
1511 1513 1514 1514 1516 1517 1518 1518 1518 1518 1520 1522 1525 1527 1527 1528 1528 1527 1527 1527 1528 1528 1527 1529 1529 1528 1529 1528 1528 1530 1531 1531 1533 1532 1528 1528 1529 1527 1527 1524 1521 1519 1518 1518 1518 1518 1520 1523 1522 1523 1524 1521 1517 1517 1517 1516 1516 1515 1517 1519 1518 1517 1517 1517 1523 1526 1522 1517 1514 1513 1512 1510 1506 1505 1503 1500 1496 1492 1491 1488 1485 1485 1485 1485 1486 1487 1487 1487
1513 1514 1514 1515 1518 1520 1520 1520 1520 1521 1523 1525 1527 1527 1527 1528 1528 1528 1528 1529 1529 1528 1528 1529 1529 1528 1529 1528 1527 1528 1527 1527 1528 1527 1525 1527 1528 1525 1525 1524 1522 1522 1521 1520 1520 1518 1519 1524 1522 1523 1528 1526 1519 1519 1518 1516 1515 1516 1520 1524 1523 1522 1520 1519 1523 1525 1523 1521 1517 1514 1515 1513 1506 1502 1500 1497 1494 1494 1493 1490 1487 1486 1486 1487 1487 1487 1488 1488
1515 1515 1515 1515 1519 1523 1523 1522 1522 1524 1527 1528 1527 1527 1528 1528 1527 1527 1529 1530 1529 1528 1528 1528 1527 1528 1528 1528 1527 1526 1526 1525 1524 1523 1522 1524 1524 1523 1523 1523 1522 1523 1522 1521 1521 1520 1520 1523 1523 1526 1531 1527 1522 1522 1519 1517 1521 1524 1526 1527 1527 1525 1523 1521 1523 1525 1522 1521 1520 1519 1517 1513 1506 1501 1498 1494 1493 1496 1495 1492 1489 1488 1488 1488 1487 1488 1488 1489